K8DJB-1 Weather Reports


time (UTC)temp
C
wind
direction
speed
KPH
gust
KPH
rain 1hr
cm
rain 24hr
cm
rain mn
cm
humidity
%
barometer
mb
20260509091556 10 147 6.4 11.3 0.00 0.00 0.00 82 1002.5
20260509091056 10 148 6.4 9.7 0.00 0.00 0.00 82 1002.7
20260509090556 10 145 6.4 9.7 0.00 0.00 0.00 81 1002.8
20260509090056 10 144 3.2 11.3 0.00 0.00 0.00 80 1002.8
20260509085556 10 143 4.8 11.3 0.00 0.00 0.00 81 1002.8
20260509085056 10 145 4.8 11.3 0.00 0.00 0.00 80 1002.8
20260509084556 10 147 3.2 8.0 0.00 0.00 0.00 80 1002.8
20260509084056 10 139 3.2 11.3 0.00 0.00 0.00 80 1002.8
20260509083556 10 146 6.4 11.3 0.00 0.00 0.00 79 1002.9
20260509083057 10 143 4.8 9.7 0.00 0.00 0.00 79 1002.9
20260509082556 10 148 4.8 9.7 0.00 0.00 0.00 79 1003.0
20260509082056 10 147 3.2 6.4 0.00 0.00 0.00 78 1003.2
20260509081220 10 147 3.2 11.3 0.00 0.00 0.00 76 1003.2
20260509080720 10 145 4.8 11.3 0.00 0.00 0.00 76 1003.1
20260509080220 10 139 4.8 11.3 0.00 0.00 0.00 76 1003.2
20260509075720 10 142 4.8 8.0 0.00 0.00 0.00 75 1003.3
20260509075220 10 146 4.8 9.7 0.00 0.00 0.00 74 1003.4
20260509074720 10 148 4.8 11.3 0.00 0.00 0.00 74 1003.4
20260509074220 10 148 6.4 11.3 0.00 0.00 0.00 74 1003.4
20260509073720 10 145 6.4 9.7 0.00 0.00 0.00 73 1003.5
20260509073220 10 147 6.4 12.9 0.00 0.00 0.00 73 1003.5
20260509072720 10 148 6.4 12.9 0.00 0.00 0.00 72 1003.5
20260509071232 10 154 8.0 11.3 0.00 0.00 0.00 68 1003.8
20260509070732 10 154 6.4 14.5 0.00 0.00 0.00 67 1003.9
20260509070232 10 152 6.4 14.5 0.00 0.00 0.00 67 1003.9
20260509065732 10 157 8.0 11.3 0.00 0.00 0.00 66 1003.9
20260509065232 10 156 8.0 11.3 0.00 0.00 0.00 65 1004.0
20260509064732 10 146 6.4 11.3 0.00 0.00 0.00 63 1003.9
20260509064233 10 150 6.4 11.3 0.00 0.00 0.00 62 1003.9
20260509063732 10 152 8.0 11.3 0.00 0.00 0.00 62 1004.0
20260509063232 10 155 8.0 11.3 0.00 0.00 0.00 60 1004.1
20260509062732 10 147 4.8 8.0 0.00 0.00 0.00 57 1004.2
20260509062232 10 147 3.2 6.4 0.00 0.00 0.00 53 1004.3
20260509061732 10 147 3.2 11.3 0.00 0.00 0.00 51 1004.4
20260509061232 10 147 4.8 11.3 0.00 0.00 0.00 51 1004.4
20260509060732 10 147 6.4 11.3 0.00 0.00 0.00 51 1004.3
20260509055732 10 161 6.4 9.7 0.00 0.00 0.00 50 1004.5
20260509055232 10 161 6.4 9.7 0.00 0.00 0.00 50 1004.5
20260509054732 10 161 6.4 9.7 0.00 0.00 0.00 50 1004.6
20260509054232 10 170 6.4 9.7 0.00 0.00 0.00 49 1004.6
20260509052823 10 180 6.4 8.0 0.00 0.00 0.00 49 1004.5
20260509052323 10 181 4.8 9.7 0.00 0.00 0.00 49 1004.5
20260509050823 9 189 3.2 8.0 0.00 0.00 0.00 49 1004.6
20260509045823 10 189 1.6 6.4 0.00 0.00 0.00 50 1004.6
20260509045202 9 189 3.2 6.4 0.00 0.00 0.00 48 1004.7
20260509044702 9 189 3.2 6.4 0.00 0.00 0.00 49 1004.7
20260509044202 9 189 3.2 6.4 0.00 0.00 0.00 50 1004.7
20260509043702 8 190 4.8 6.4 0.00 0.00 0.00 51 1004.8
20260509043202 8 190 3.2 6.4 0.00 0.00 0.00 53 1004.8
20260509042702 8 190 3.2 4.8 0.00 0.00 0.00 58 1004.9
20260509042202 8 0 0.0 3.2 0.00 0.00 0.00 59 1004.9
20260509041702 8 0 0.0 0.0 0.00 0.00 0.00 59 1004.9
20260509041203 8 0 0.0 0.0 0.00 0.00 0.00 53 1004.8
20260509040202 7 0 0.0 0.0 0.00 0.00 0.00 60 1005.1
20260509035702 7 0 0.0 0.0 0.00 0.00 0.00 59 1005.1
20260509035202 7 0 0.0 0.0 0.00 0.00 0.00 58 1005.2
20260509034202 7 0 0.0 0.0 0.00 0.00 0.00 59 1005.3
20260509033702 7 0 0.0 0.0 0.00 0.00 0.00 59 1005.2
20260509033528 7 0 0.0 0.0 0.00 0.00 0.00 62 1005.3
20260509033202 7 0 0.0 0.0 0.00 0.00 0.00 62 1005.3
20260509032703 7 0 0.0 0.0 0.00 0.00 0.00 63 1005.3
20260509032202 7 0 0.0 0.0 0.00 0.00 0.00 63 1005.3
20260509031702 7 0 0.0 0.0 0.00 0.00 0.00 62 1005.4
20260509031202 8 0 0.0 0.0 0.00 0.00 0.00 62 1005.4
20260509030702 8 0 0.0 0.0 0.00 0.00 0.00 56 1005.5
20260509030202 8 0 0.0 0.0 0.00 0.00 0.00 54 1005.5
20260509025702 8 0 0.0 0.0 0.00 0.00 0.00 54 1005.5
20260509025202 8 0 0.0 0.0 0.00 0.00 0.00 54 1005.8
20260509024702 8 0 0.0 0.0 0.00 0.00 0.00 51 1005.7
20260509024202 8 0 0.0 0.0 0.00 0.00 0.00 53 1005.8
20260509023702 8 0 0.0 0.0 0.00 0.00 0.00 58 1005.8
20260509023202 8 0 0.0 0.0 0.00 0.00 0.00 57 1006.0
20260509022703 8 0 0.0 0.0 0.00 0.00 0.00 57 1005.9
20260509022202 8 0 0.0 0.0 0.00 0.00 0.00 56 1005.9
20260509021702 9 0 0.0 0.0 0.00 0.00 0.00 58 1005.9
20260509021202 9 0 0.0 0.0 0.00 0.00 0.00 58 1005.9
20260509020203 10 0 0.0 0.0 0.00 0.00 0.00 58 1006.0
20260509015703 10 0 0.0 0.0 0.00 0.00 0.00 56 1006.0
20260509015202 10 0 0.0 0.0 0.00 0.00 0.00 52 1005.9
20260509014703 10 0 0.0 0.0 0.00 0.00 0.00 52 1005.9
20260509014202 10 0 0.0 0.0 0.00 0.00 0.00 55 1005.9
20260509013702 11 0 0.0 0.0 0.00 0.00 0.00 55 1005.8
20260509013202 11 0 0.0 0.0 0.00 0.00 0.00 48 1005.8
20260509012702 11 0 0.0 0.0 0.00 0.00 0.00 49 1005.6
20260509012202 11 0 0.0 0.0 0.00 0.00 0.00 42 1005.6
20260509011702 12 0 0.0 0.0 0.00 0.00 0.00 48 1005.7
20260509011202 12 0 0.0 0.0 0.00 0.00 0.00 42 1005.7
20260509010702 13 0 0.0 1.6 0.00 0.00 0.00 46 1005.7
20260509010202 13 0 0.0 1.6 0.00 0.00 0.00 42 1005.7
20260509005702 13 0 0.0 0.0 0.00 0.00 0.00 41 1005.7
20260509005202 14 0 0.0 0.0 0.00 0.00 0.00 31 1005.7
20260509004702 14 0 0.0 0.0 0.00 0.00 0.00 29 1005.7
20260509004202 15 0 0.0 0.0 0.00 0.00 0.00 27 1005.6
20260509003638 15 0 0.0 3.2 0.00 0.00 0.00 30 1005.7
20260509002909 15 190 1.6 4.8 0.00 0.00 0.00 28 1005.6
20260509002411 16 190 3.2 8.0 0.00 0.00 0.00 26 1005.7
20260509001909 16 191 4.8 8.0 0.00 0.00 0.00 25 1005.7
20260509000909 16 210 3.2 6.4 0.00 0.00 0.00 27 1005.8
20260509000410 16 211 4.8 8.0 0.00 0.00 0.00 25 1005.9
20260508235909 16 211 3.2 8.0 0.00 0.00 0.00 25 1006.0
20260508235409 16 242 4.8 9.7 0.00 0.00 0.00 22 1006.0
20260508234909 16 233 4.8 12.9 0.00 0.00 0.00 22 1006.1
20260508234409 16 234 6.4 16.1 0.00 0.00 0.00 21 1006.3
20260508233909 17 234 8.0 16.1 0.00 0.00 0.00 21 1006.3
20260508233409 17 244 4.8 11.3 0.00 0.00 0.00 22 1006.3
20260508232909 17 261 4.8 12.9 0.00 0.00 0.00 22 1006.3
20260508232409 16 231 6.4 17.7 0.00 0.00 0.00 22 1006.4
20260508231909 16 225 9.7 19.3 0.00 0.00 0.00 23 1006.4
20260508231409 16 234 11.3 19.3 0.00 0.00 0.00 22 1006.4
20260508230909 17 231 12.9 19.3 0.00 0.00 0.00 23 1006.3
20260508230338 17 231 11.3 20.9 0.00 0.00 0.00 23 1006.4
20260508225819 17 247 6.4 19.3 0.00 0.00 0.00 23 1006.3
20260508225319 17 230 12.9 16.1 0.00 0.00 0.00 24 1006.3
20260508224819 17 281 8.0 25.7 0.00 0.00 0.00 23 1006.3
20260508224319 17 254 11.3 25.7 0.00 0.00 0.00 23 1006.3
20260508223819 17 275 6.4 24.1 0.00 0.00 0.00 24 1006.3
20260508223319 17 258 12.9 24.1 0.00 0.00 0.00 22 1006.3
20260508222819 17 236 16.1 22.5 0.00 0.00 0.00 23 1006.3
20260508222319 17 288 14.5 22.5 0.00 0.00 0.00 24 1006.4
20260508221819 17 275 12.9 19.3 0.00 0.00 0.00 23 1006.4
20260508221319 17 267 6.4 22.5 0.00 0.00 0.00 24 1006.4
20260508220819 17 247 11.3 22.5 0.00 0.00 0.00 24 1006.5
20260508220319 17 231 12.9 20.9 0.00 0.00 0.00 24 1006.4
20260508215726 17 268 11.3 17.7 0.00 0.00 0.00 26 1006.5
20260508215108 17 226 16.1 24.1 0.00 0.00 0.00 23 1006.4
20260508214608 17 232 11.3 25.7 0.00 0.00 0.00 23 1006.4
20260508213608 17 222 12.9 19.3 0.00 0.00 0.00 23 1006.5
20260508213108 17 238 12.9 25.7 0.00 0.00 0.00 24 1006.6
20260508212608 17 244 11.3 29.0 0.00 0.00 0.00 25 1006.5
20260508212108 17 288 16.1 29.0 0.00 0.00 0.00 26 1006.5
20260508211608 17 252 9.7 24.1 0.00 0.00 0.00 28 1006.6
20260508210608 17 215 11.3 19.3 0.00 0.00 0.00 31 1006.6
20260508210108 17 267 8.0 22.5 0.00 0.00 0.00 25 1006.6
20260508205608 17 258 14.5 24.1 0.00 0.00 0.00 26 1006.7
20260508205108 16 239 14.5 24.1 0.00 0.00 0.00 26 1006.8
20260508204608 17 243 11.3 24.1 0.00 0.00 0.00 24 1006.8
20260508204109 16 279 19.3 24.1 0.00 0.00 0.00 25 1006.9
20260508203608 16 245 12.9 22.5 0.00 0.00 0.00 25 1006.9
20260508203108 16 264 11.3 20.9 0.00 0.00 0.00 25 1006.9
20260508202608 16 242 12.9 24.1 0.00 0.00 0.00 24 1007.1
20260508202108 16 262 12.9 24.1 0.00 0.00 0.00 24 1007.1
20260508201608 16 241 11.3 25.7 0.00 0.00 0.00 24 1007.1
20260508200608 17 227 14.5 25.7 0.00 0.00 0.00 26 1007.2
20260508200108 17 244 12.9 25.7 0.00 0.00 0.00 28 1007.3
20260508195107 16 309 12.9 27.4 0.00 0.00 0.00 25 1007.4
20260508194607 16 232 16.1 27.4 0.00 0.00 0.00 24 1007.5
20260508194108 16 260 8.0 25.7 0.00 0.00 0.00 25 1007.5
20260508193607 16 294 16.1 25.7 0.00 0.00 0.00 23 1007.5
20260508193107 16 255 9.7 27.4 0.00 0.00 0.00 23 1007.6
20260508192607 16 261 19.3 29.0 0.00 0.00 0.00 25 1007.7
20260508192107 16 272 17.7 29.0 0.00 0.00 0.00 23 1007.7
20260508191607 17 253 14.5 22.5 0.00 0.00 0.00 25 1007.8
20260508191112 16 284 16.1 22.5 0.00 0.00 0.00 26 1007.7
20260508190607 16 317 14.5 22.5 0.00 0.00 0.00 24 1007.7
20260508190107 16 231 11.3 20.9 0.00 0.00 0.00 26 1007.8
20260508185607 16 282 11.3 22.5 0.00 0.00 0.00 25 1007.9
20260508185107 16 309 12.9 27.4 0.00 0.00 0.00 24 1007.9
20260508184607 16 308 12.9 29.0 0.00 0.00 0.00 24 1008.0
20260508183607 16 281 14.5 30.6 0.00 0.00 0.00 26 1008.0
20260508183107 16 217 14.5 30.6 0.00 0.00 0.00 25 1008.0
20260508182607 16 233 16.1 22.5 0.00 0.00 0.00 24 1008.1
20260508182107 16 244 14.5 20.9 0.00 0.00 0.00 24 1008.2
20260508181607 16 324 9.7 20.9 0.00 0.00 0.00 24 1008.2
20260508180607 16 236 9.7 22.5 0.00 0.00 0.00 26 1008.4
20260508180107 16 279 14.5 22.5 0.00 0.00 0.00 26 1008.4
20260508175607 16 184 6.4 20.9 0.00 0.00 0.00 25 1008.4
20260508175107 16 237 9.7 24.1 0.00 0.00 0.00 25 1008.6
20260508174607 16 264 16.1 24.1 0.00 0.00 0.00 24 1008.6
20260508173607 16 294 11.3 27.4 0.00 0.00 0.00 29 1008.8
20260508173107 16 219 9.7 22.5 0.00 0.00 0.00 31 1008.9
20260508172607 15 278 9.7 25.7 0.00 0.00 0.00 33 1009.0
20260508172107 15 232 19.3 25.7 0.00 0.00 0.00 29 1009.1
20260508171218 15 291 16.1 30.6 0.00 0.00 0.00 30 1009.2
20260508170718 15 265 11.3 30.6 0.00 0.00 0.00 30 1009.1
20260508170219 15 225 11.3 24.1 0.00 0.00 0.00 29 1009.2
20260508165718 15 213 8.0 22.5 0.00 0.00 0.00 32 1009.3
20260508165218 15 248 9.7 25.7 0.00 0.00 0.00 29 1009.5
20260508164718 15 292 17.7 25.7 0.00 0.00 0.00 29 1009.6
20260508164218 15 250 14.5 22.5 0.00 0.00 0.00 29 1009.6
20260508163718 15 293 9.7 22.5 0.00 0.00 0.00 30 1009.7
20260508163218 15 211 8.0 16.1 0.00 0.00 0.00 31 1009.8
20260508162115 15 222 16.1 25.7 0.00 0.00 0.00 31 1009.9
20260508161615 15 258 8.0 16.1 0.00 0.00 0.00 32 1009.9
20260508161116 15 260 9.7 19.3 0.00 0.00 0.00 35 1009.8
20260508160615 14 245 8.0 19.3 0.00 0.00 0.00 31 1009.8
20260508160116 14 272 6.4 17.7 0.00 0.00 0.00 32 1010.0
20260508155614 14 202 4.8 20.9 0.00 0.00 0.00 34 1010.0
20260508155115 14 208 4.8 20.9 0.00 0.00 0.00 35 1009.9
20260508154614 14 293 11.3 20.9 0.00 0.00 0.00 38 1010.0
20260508154116 13 0 0.0 16.1 0.00 0.00 0.00 38 1010.0
20260508153615 14 205 9.7 16.1 0.00 0.00 0.00 43 1010.0
20260508153116 14 278 4.8 16.1 0.00 0.00 0.00 45 1010.1
20260508152614 13 267 8.0 16.1 0.00 0.00 0.00 42 1010.2
20260508152116 13 102 3.2 12.9 0.00 0.00 0.00 43 1010.1
20260508151614 13 134 3.2 14.5 0.00 0.00 0.00 43 1010.0
20260508151115 13 137 8.0 14.5 0.00 0.00 0.00 46 1010.1
20260508150614 13 96 3.2 6.4 0.00 0.00 0.00 50 1010.1
20260508145758 13 210 8.0 22.5 0.00 0.00 0.00 51 1010.3
20260508144758 12 236 4.8 17.7 0.00 0.00 0.00 46 1010.4
20260508144258 12 203 8.0 14.5 0.00 0.00 0.00 45 1010.3
20260508143758 12 234 4.8 14.5 0.00 0.00 0.00 41 1010.3
20260508143258 12 154 6.4 14.5 0.00 0.00 0.00 57 1010.3
20260508142758 12 166 6.4 16.1 0.00 0.00 0.00 57 1010.4
20260508142259 12 155 8.0 16.1 0.00 0.00 0.00 56 1010.5
20260508141759 12 158 4.8 12.9 0.00 0.00 0.00 58 1010.6
20260508141300 11 160 6.4 12.9 0.00 0.00 0.00 59 1010.5
20260508140447 11 150 6.4 14.5 0.00 0.00 0.00 62 1010.6
20260508135947 11 168 6.4 12.9 0.00 0.00 0.00 64 1010.6
20260508135447 11 143 4.8 12.9 0.00 0.00 0.00 65 1010.7
20260508134947 11 190 8.0 14.5 0.00 0.00 0.00 66 1010.6
20260508134447 10 162 6.4 17.7 0.00 0.00 0.00 68 1010.6
20260508133947 10 166 9.7 17.7 0.00 0.00 0.00 69 1010.6
20260508133447 10 140 3.2 9.7 0.00 0.00 0.00 73 1010.7
20260508132947 10 170 3.2 12.9 0.00 0.00 0.00 74 1010.6
20260508132447 10 141 3.2 14.5 0.00 0.00 0.00 75 1010.6
20260508131947 9 167 6.4 16.1 0.00 0.00 0.00 75 1010.7
20260508131447 9 167 8.0 16.1 0.00 0.00 0.00 76 1010.8
20260508130947 8 155 4.8 11.3 0.00 0.00 0.00 76 1010.8
20260508130447 8 160 3.2 11.3 0.00 0.00 0.00 77 1010.7
20260508125947 8 169 6.4 11.3 0.00 0.00 0.00 79 1010.8
20260508125124 7 169 1.6 6.4 0.00 0.00 0.00 82 1010.8
20260508124624 7 0 0.0 6.4 0.00 0.00 0.00 84 1010.8
20260508124124 6 169 1.6 8.0 0.00 0.00 0.00 84 1010.8
20260508123624 6 169 4.8 8.0 0.00 0.00 0.00 85 1010.9
20260508123124 5 169 3.2 6.4 0.00 0.00 0.00 87 1010.9
20260508122124 4 170 3.2 6.4 0.00 0.00 0.00 89 1010.6
20260508121624 3 0 0.0 3.2 0.00 0.00 0.00 89 1010.6
20260508121124 3 0 0.0 0.0 0.00 0.00 0.00 90 1010.4
20260508120625 3 0 0.0 0.0 0.00 0.00 0.00 90 1010.4
20260508120124 2 0 0.0 3.2 0.00 0.00 0.00 90 1010.3
20260508115624 2 0 0.0 6.4 0.00 0.00 0.00 90 1010.3
20260508115124 2 170 1.6 6.4 0.00 0.00 0.00 90 1010.3
20260508114624 1 0 0.0 0.0 0.00 0.00 0.00 89 1010.3
20260508114124 1 0 0.0 0.0 0.00 0.00 0.00 89 1010.2
20260508113624 1 0 0.0 0.0 0.00 0.00 0.00 89 1010.2
20260508113124 1 0 0.0 0.0 0.00 0.00 0.00 89 1010.2
20260508112625 1 0 0.0 0.0 0.00 0.00 0.00 89 1010.2
20260508112124 1 0 0.0 0.0 0.00 0.00 0.00 89 1010.1
20260508111624 1 0 0.0 0.0 0.00 0.00 0.00 88 1010.0
20260508111124 0 0 0.0 1.6 0.00 0.00 0.00 88 1010.0
20260508110624 0 0 0.0 1.6 0.00 0.00 0.00 88 1010.1
20260508110124 0 0 0.0 0.0 0.00 0.00 0.00 88 1010.1
20260508105624 0 0 0.0 3.2 0.00 0.00 0.00 88 1010.1
20260508105124 0 0 0.0 3.2 0.00 0.00 0.00 88 1010.1
20260508104624 1 170 1.6 3.2 0.00 0.00 0.00 88 1010.0
20260508104031 1 0 0.0 0.0 0.00 0.00 0.00 87 1010.0
20260508103531 1 0 0.0 0.0 0.00 0.00 0.00 88 1009.8
20260508103031 1 0 0.0 0.0 0.00 0.00 0.00 87 1009.7
20260508102531 1 0 0.0 0.0 0.00 0.00 0.00 87 1009.8
20260508102031 1 0 0.0 0.0 0.00 0.00 0.00 87 1009.7
20260508100913 1 0 0.0 1.6 0.00 0.00 0.00 88 1009.8
20260508100413 1 0 0.0 3.2 0.00 0.00 0.00 88 1009.8
20260508100108 1 170 1.6 3.2 0.00 0.00 0.00 88 1009.9
20260508095913 1 170 1.6 3.2 0.00 0.00 0.00 88 1009.9
20260508095623 1 170 1.6 3.2 0.00 0.00 0.00 87 1009.9
20260508095413 1 170 1.6 3.2 0.00 0.00 0.00 87 1009.9
20260508094912 1 0 0.0 0.0 0.00 0.00 0.00 87 1009.9
20260508094414 1 0 0.0 3.2 0.00 0.00 0.00 87 1010.0
20260508094054 1 0 0.0 6.4 0.00 0.00 0.00 88 1009.9
20260508093912 1 0 0.0 6.4 0.00 0.00 0.00 88 1009.9
20260508093502 1 170 1.6 6.4 0.00 0.00 0.00 87 1009.9
20260508093413 1 170 1.6 6.4 0.00 0.00 0.00 87 1009.9
20260508093018 1 170 1.6 6.4 0.00 0.00 0.00 87 1010.0
20260508092912 1 170 1.6 6.4 0.00 0.00 0.00 87 1010.0
20260508092413 1 170 1.6 6.4 0.00 0.00 0.00 87 1010.1
20260508091912 1 170 1.6 6.4 0.00 0.00 0.00 87 1010.0